Location: Melizzano
(41.1500°N, 14.5000°E)
Time: 14:02:03
(UTC+00:00)

Cosmos 962 Rocket - Pass Details

Date: 11 May 2021
Orbit: 950 x 1000 km, 82.9° (Epoch: 19 June)

Event Time Altitude Azimuth Distance (km) Brightness Sun altitude
Rises 21:13:46 0° 355° (N) 3,635 8.6 -26.0°
Reaches altitude 10° 21:16:18 10° 358° (N) 2,684 7.6 -26.2°
Maximum altitude 21:22:23 65° 81° (E) 1,038 4.5 -26.7°
Enters shadow 21:22:54 63° 108° (ESE) 1,059 4.4 -26.7°
